TimeCST,TemperatureF,Dew PointF,Humidity,Sea Level PressureIn,VisibilityMPH,Wind Direction,Wind SpeedMPH,Gust SpeedMPH,PrecipitationIn,Events,Conditions,WindDirDegrees,DateUTC
12:13 AM,37.4,24.8,60,29.76,10.0,South,9.2,-,N/A,,Scattered Clouds,180,2012-12-06 06:13:00
12:53 AM,37.4,24.8,60,29.76,10.0,South,8.1,-,N/A,,Overcast,180,2012-12-06 06:53:00
1:12 AM,37.4,24.8,60,29.76,10.0,South,9.2,-,N/A,,Overcast,170,2012-12-06 07:12:00
1:33 AM,37.4,24.8,60,29.75,10.0,South,9.2,-,N/A,,Mostly Cloudy,170,2012-12-06 07:33:00
1:52 AM,37.4,26.6,65,29.74,10.0,South,8.1,-,N/A,,Mostly Cloudy,170,2012-12-06 07:52:00
2:13 AM,37.4,26.6,65,29.73,10.0,SSE,11.5,-,N/A,Rain,Rain,160,2012-12-06 08:13:00
2:32 AM,35.6,30.2,81,29.74,10.0,Calm,Calm,-,N/A,Rain,Light Rain,0,2012-12-06 08:32:00
2:53 AM,35.6,30.2,81,29.74,10.0,South,5.8,-,N/A,,Mostly Cloudy,190,2012-12-06 08:53:00
3:13 AM,35.6,30.2,81,29.73,10.0,South,5.8,-,N/A,,Mostly Cloudy,170,2012-12-06 09:13:00
3:33 AM,35.6,30.2,81,29.73,10.0,South,4.6,-,N/A,,Mostly Cloudy,180,2012-12-06 09:33:00
3:53 AM,35.6,30.2,81,29.72,10.0,South,5.8,-,N/A,,Mostly Cloudy,170,2012-12-06 09:53:00
4:13 AM,35.6,30.2,81,29.72,10.0,South,4.6,-,N/A,,Mostly Cloudy,190,2012-12-06 10:13:00
4:32 AM,35.6,30.2,81,29.73,10.0,SSW,3.5,-,N/A,,Clear,200,2012-12-06 10:32:00
4:52 AM,33.8,28.4,81,29.73,10.0,Calm,Calm,-,N/A,,Clear,0,2012-12-06 10:52:00
5:13 AM,33.8,28.4,81,29.72,10.0,SSW,3.5,-,N/A,,Clear,200,2012-12-06 11:13:00
5:33 AM,35.6,28.4,75,29.72,10.0,SW,5.8,-,N/A,,Clear,220,2012-12-06 11:33:00
5:53 AM,35.6,28.4,75,29.72,10.0,WSW,5.8,-,N/A,,Clear,240,2012-12-06 11:53:00
6:13 AM,35.6,28.4,75,29.73,10.0,WSW,4.6,-,N/A,,Clear,240,2012-12-06 12:13:00
6:33 AM,35.6,28.4,75,29.74,10.0,West,6.9,-,N/A,,Clear,260,2012-12-06 12:33:00
6:53 AM,35.6,28.4,75,29.74,10.0,WNW,5.8,-,N/A,,Clear,290,2012-12-06 12:53:00
7:13 AM,33.8,28.4,81,29.74,10.0,West,3.5,-,N/A,,Mostly Cloudy,270,2012-12-06 13:13:00
7:32 AM,33.8,28.4,81,29.75,10.0,West,5.8,-,N/A,,Overcast,280,2012-12-06 13:32:00
7:53 AM,35.6,28.4,75,29.76,10.0,WNW,10.4,20.7,N/A,,Overcast,300,2012-12-06 13:53:00
8:13 AM,33.8,26.6,75,29.77,10.0,West,10.4,-,N/A,,Overcast,280,2012-12-06 14:13:00
8:33 AM,33.8,26.6,75,29.78,10.0,West,10.4,17.3,N/A,,Overcast,280,2012-12-06 14:33:00
8:53 AM,33.8,26.6,75,29.79,10.0,WNW,9.2,17.3,N/A,,Overcast,290,2012-12-06 14:53:00
9:12 AM,32.0,26.6,80,29.80,10.0,WNW,8.1,17.3,N/A,,Overcast,290,2012-12-06 15:12:00
9:33 AM,32.0,26.6,80,29.80,10.0,West,8.1,-,N/A,,Overcast,280,2012-12-06 15:33:00
9:53 AM,32.0,24.8,75,29.81,10.0,WNW,6.9,17.3,N/A,,Overcast,290,2012-12-06 15:53:00
10:13 AM,30.2,24.8,80,29.82,10.0,WNW,9.2,-,N/A,,Overcast,290,2012-12-06 16:13:00
10:33 AM,30.2,24.8,80,29.82,10.0,WNW,6.9,18.4,N/A,,Overcast,290,2012-12-06 16:33:00
10:52 AM,30.2,24.8,80,29.83,10.0,WNW,8.1,17.3,N/A,,Overcast,290,2012-12-06 16:52:00
11:12 AM,30.2,24.8,80,29.83,10.0,WNW,11.5,19.6,N/A,,Overcast,290,2012-12-06 17:12:00
11:33 AM,30.2,24.8,80,29.84,10.0,WNW,9.2,19.6,N/A,,Overcast,300,2012-12-06 17:33:00
11:53 AM,30.2,23.0,75,29.84,10.0,WNW,9.2,17.3,N/A,,Overcast,290,2012-12-06 17:53:00
12:13 PM,30.2,23.0,75,29.84,10.0,WNW,9.2,18.4,N/A,,Overcast,300,2012-12-06 18:13:00
12:33 PM,30.2,23.0,75,29.84,10.0,WNW,11.5,-,N/A,,Overcast,300,2012-12-06 18:33:00
12:52 PM,30.2,23.0,75,29.85,10.0,WNW,9.2,17.3,N/A,,Overcast,300,2012-12-06 18:52:00
1:13 PM,30.2,23.0,75,29.86,10.0,West,11.5,18.4,N/A,,Overcast,270,2012-12-06 19:13:00
1:33 PM,28.4,23.0,80,29.87,10.0,WNW,8.1,17.3,N/A,,Overcast,300,2012-12-06 19:33:00
1:53 PM,28.4,23.0,80,29.87,10.0,West,4.6,-,N/A,,Overcast,280,2012-12-06 19:53:00
2:13 PM,28.4,21.2,74,29.88,10.0,West,9.2,19.6,N/A,,Overcast,280,2012-12-06 20:13:00
2:33 PM,28.4,21.2,74,29.88,10.0,WNW,8.1,-,N/A,,Overcast,300,2012-12-06 20:33:00
2:52 PM,28.4,21.2,74,29.89,10.0,West,8.1,-,N/A,,Overcast,270,2012-12-06 20:52:00
3:13 PM,28.4,21.2,74,29.90,10.0,West,10.4,-,N/A,,Overcast,280,2012-12-06 21:13:00
3:33 PM,28.4,21.2,74,29.91,10.0,WNW,10.4,-,N/A,,Overcast,290,2012-12-06 21:33:00
3:53 PM,28.4,21.2,74,29.91,10.0,West,9.2,-,N/A,,Overcast,280,2012-12-06 21:53:00
4:13 PM,26.6,19.4,74,29.92,10.0,West,8.1,-,N/A,,Overcast,270,2012-12-06 22:13:00
4:33 PM,26.6,19.4,74,29.93,10.0,WNW,5.8,-,N/A,,Overcast,290,2012-12-06 22:33:00
4:53 PM,26.6,19.4,74,29.93,10.0,WNW,9.2,-,N/A,,Mostly Cloudy,290,2012-12-06 22:53:00
5:13 PM,26.6,19.4,74,29.94,10.0,West,4.6,-,N/A,,Scattered Clouds,280,2012-12-06 23:13:00
5:33 PM,26.6,19.4,74,29.95,10.0,WNW,5.8,-,N/A,,Clear,290,2012-12-06 23:33:00
5:52 PM,24.8,19.4,80,29.95,10.0,WNW,5.8,-,N/A,,Scattered Clouds,290,2012-12-06 23:52:00
6:13 PM,24.8,19.4,80,29.96,10.0,WNW,8.1,-,N/A,,Clear,290,2012-12-07 00:13:00
6:32 PM,24.8,17.6,74,29.96,10.0,WNW,5.8,-,N/A,,Clear,290,2012-12-07 00:32:00
6:53 PM,24.8,17.6,74,29.97,10.0,WNW,4.6,-,N/A,,Clear,290,2012-12-07 00:53:00
7:13 PM,23.0,17.6,80,29.97,10.0,WNW,3.5,-,N/A,,Clear,300,2012-12-07 01:13:00
7:33 PM,23.0,17.6,80,29.98,10.0,Calm,Calm,-,N/A,,Clear,0,2012-12-07 01:33:00
7:53 PM,21.2,17.6,86,29.97,7.0,Calm,Calm,-,N/A,,Clear,0,2012-12-07 01:53:00
8:33 PM,21.2,17.6,86,29.96,10.0,Calm,Calm,-,N/A,,Clear,0,2012-12-07 02:33:00
8:52 PM,19.4,15.8,86,29.96,10.0,Calm,Calm,-,N/A,,Clear,0,2012-12-07 02:52:00
9:12 PM,17.6,15.8,93,29.97,7.0,Calm,Calm,-,N/A,,Clear,0,2012-12-07 03:12:00
9:32 PM,19.4,17.6,93,29.98,10.0,Calm,Calm,-,N/A,,Clear,0,2012-12-07 03:32:00
9:53 PM,19.4,17.6,93,29.99,10.0,West,3.5,-,N/A,,Clear,260,2012-12-07 03:53:00
10:12 PM,21.2,17.6,86,30.00,10.0,WNW,6.9,-,N/A,,Scattered Clouds,290,2012-12-07 04:12:00
10:52 PM,23.0,17.6,80,29.99,10.0,WNW,6.9,-,N/A,,Overcast,300,2012-12-07 04:52:00
11:12 PM,24.8,19.4,80,30.00,10.0,NW,8.1,-,N/A,,Overcast,310,2012-12-07 05:12:00
11:53 PM,24.8,19.4,80,30.00,10.0,Calm,Calm,-,N/A,,Overcast,0,2012-12-07 05:53:00